Theta_e
302 303 306 306 306 306 307 307 307 307 308 308 309 310 310 310 310 311 312 312 312 313 314 315 314 312 312 313 313 313 313 310 308 306 305 305 305 305 305 304 304 304 303 303
305 305 309 309 308 306 306 307 308 308 307 307 307 307 308 307 309 309 309 310 310 310 310 311 311 313 312 312 312 312 312 310 307 305 304 304 304 305 304 304 303 304 302 302
310 310 309 309 309 307 307 308 309 309 308 307 306 307 308 308 308 308 308 309 309 309 309 310 310 311 311 311 311 310 310 309 307 306 305 304 304 303 303 303 303 303 303 302
308 309 308 311 308 309 307 308 308 308 307 308 306 307 309 309 308 309 309 309 309 309 309 309 309 310 310 310 311 310 309 308 307 306 305 304 303 303 303 302 302 302 302 301
309 307 306 307 311 307 307 306 307 306 306 307 307 304 308 308 307 307 308 309 309 309 309 308 308 308 308 308 309 309 308 308 307 306 305 304 303 303 302 302 302 302 301 302
307 305 302 305 307 308 305 304 302 303 305 309 308 308 310 311 312 313 311 309 308 308 308 307 306 306 306 306 308 308 307 307 306 305 305 304 303 303 302 301 302 302 302 302
307 308 304 299 301 301 305 304 308 308 308 308 309 308 309 310 308 308 308 308 308 307 308 307 307 307 305 305 307 308 307 306 306 305 305 304 304 303 302 302 302 302 302 302
305 310 308 304 301 304 303 306 312 315 317 313 310 307 311 310 309 308 306 306 306 307 307 304 303 303 303 303 304 306 306 306 305 305 305 304 304 303 303 302 302 303 302 302
298 302 303 300 301 303 304 304 305 308 308 307 310 306 308 308 307 307 306 306 305 303 302 301 300 300 300 301 302 304 305 305 305 305 305 304 304 304 302 302 302 303 302 302
295 299 300 299 298 299 302 302 304 305 307 311 310 311 312 311 309 305 304 303 301 301 300 300 299 299 298 299 300 302 303 304 304 304 304 304 304 303 303 303 303 303 302 302
295 295 298 299 300 301 300 301 303 306 305 311 312 312 305 305 304 303 302 301 300 299 298 298 298 297 297 297 298 299 301 302 303 303 303 303 303 303 303 302 302 302 302 301
292 293 296 296 300 298 298 301 302 306 306 306 308 311 303 303 303 302 301 300 299 298 297 296 296 295 294 295 295 296 297 299 301 301 302 302 302 302 302 302 302 302 301 301
291 291 293 294 301 296 298 299 302 302 303 308 309 307 303 302 302 301 300 299 297 296 295 295 294 293 293 293 293 294 294 294 296 299 300 301 302 302 302 302 301 301 301 301
289 289 289 292 293 293 294 298 298 303 304 304 305 306 305 303 302 300 298 297 295 294 293 293 292 291 290 290 291 291 292 293 294 296 298 300 300 301 301 301 301 301 301 300
289 288 288 290 290 290 294 298 298 299 305 304 304 305 306 305 300 297 296 295 293 291 290 289 289 287 286 287 289 289 289 290 292 293 295 297 298 299 299 300 300 300 300 300
289 288 289 288 290 292 294 295 297 299 299 304 301 302 300 298 297 295 293 291 290 288 287 286 286 285 283 283 285 286 286 287 288 289 290 290 292 295 297 298 298 299 299 299
289 289 289 290 290 292 293 295 297 297 294 295 302 298 297 296 292 291 290 288 287 286 285 284 283 283 281 280 282 283 283 283 284 285 286 286 288 289 290 293 296 297 297 297
288 288 289 292 289 293 295 293 293 294 292 291 292 292 293 292 288 287 286 286 284 284 282 281 282 280 278 278 279 281 279 279 280 280 281 282 283 286 287 289 290 293 295 296
288 288 287 288 290 290 293 292 293 293 292 290 290 289 290 289 288 286 285 284 283 282 281 280 280 278 277 276 277 278 277 277 276 276 278 279 281 283 286 287 288 289 291 292
286 287 287 288 287 290 292 289 290 292 294 290 289 289 288 291 292 287 285 283 283 281 280 278 278 278 276 275 275 276 275 274 273 273 274 276 278 281 284 286 287 288 289 290
286 287 286 287 287 289 290 288 290 293 292 289 288 287 287 286 285 284 283 283 281 279 278 277 277 277 275 274 274 275 274 273 272 272 273 274 276 279 281 283 286 288 289 289
286 286 287 286 285 285 288 288 288 289 289 289 287 285 285 285 284 283 282 282 280 279 277 276 276 276 274 272 272 273 272 271 270 270 272 272 274 277 278 282 285 287 288 289
286 286 286 285 286 288 288 288 288 286 287 286 285 282 281 281 281 280 280 279 278 277 276 275 274 274 273 271 271 271 270 269 269 269 270 271 273 274 276 279 282 285 287 289
286 287 287 287 287 288 289 287 284 283 283 281 279 279 279 278 278 278 278 278 277 276 275 273 273 273 272 271 270 269 268 267 267 268 269 271 272 272 274 276 279 281 283 286
286 287 287 287 287 287 288 284 283 282 280 278 278 277 277 276 276 276 275 275 275 274 273 272 271 271 271 270 269 267 266 265 266 267 268 270 270 271 272 274 277 277 279 282
287 287 287 287 287 286 286 283 279 279 280 277 276 276 275 274 273 273 273 273 272 271 271 270 269 269 269 268 267 266 265 264 264 266 267 268 268 270 271 273 275 275 277 278
Wind_Speed
16 9 21 27 27 29 27 28 31 28 14 7 19 29 28 24 24 23 22 22 23 23 21 26 28 29 30 31 33 36 38 38 37 34 33 30 29 28 26 26 26 27 28 28
12 24 35 25 24 26 28 30 32 26 22 16 19 33 29 27 27 27 26 25 26 26 24 23 26 29 30 33 35 34 38 41 43 40 38 34 31 27 27 26 28 29 31 31
29 35 22 23 24 26 29 29 30 27 18 18 17 32 34 28 30 30 29 28 25 26 25 24 20 20 27 31 36 40 40 40 41 38 34 28 26 21 24 27 28 27 28 31
25 40 26 22 27 27 25 28 24 21 12 16 9 18 26 20 22 18 17 20 22 22 21 20 17 16 24 30 33 34 37 40 40 40 38 39 38 28 29 35 34 38 36 34
26 21 18 26 36 19 22 8 17 18 19 19 23 9 22 3 10 11 15 18 19 16 15 16 15 14 19 25 29 32 34 37 40 43 42 40 34 31 26 29 31 32 35 31
34 16 8 19 17 20 9 10 2 5 10 13 30 18 31 18 24 20 11 6 7 1 4 6 6 9 15 19 24 27 32 35 37 40 41 41 38 33 28 29 29 29 31 32
20 29 26 7 10 6 18 12 7 7 6 12 21 16 27 3 6 14 11 5 3 2 4 6 5 4 6 13 17 21 26 30 34 36 38 37 36 35 34 37 35 33 31 31
8 10 24 22 26 15 22 21 10 14 14 17 16 11 22 16 16 15 2 6 5 5 4 7 8 7 5 5 10 17 21 25 29 33 36 35 34 34 33 34 34 35 34 35
8 10 13 13 12 21 16 19 29 12 11 4 8 14 20 16 15 5 6 1 8 8 8 10 11 11 10 5 4 12 16 19 23 26 28 31 33 32 32 33 33 32 33 33
8 17 14 7 5 14 20 6 13 10 9 14 12 20 13 7 9 6 6 8 9 10 11 12 12 13 15 12 7 1 8 12 16 20 24 27 30 32 30 30 33 33 34 34
14 7 15 8 5 13 10 11 7 5 12 10 9 9 5 5 7 7 8 8 9 9 10 11 11 13 18 18 16 10 4 4 11 14 18 21 24 27 27 28 31 32 33 37
12 7 12 25 24 4 4 11 18 8 10 11 14 11 6 8 9 9 9 9 10 11 11 12 13 14 18 19 20 19 15 7 1 8 14 18 20 23 25 26 27 30 33 35
6 8 13 17 8 16 8 21 20 18 17 12 9 13 8 9 9 9 9 10 10 12 13 13 14 15 15 19 20 19 19 16 11 3 7 11 15 18 21 22 23 25 28 31
12 8 11 12 19 17 20 19 22 14 10 16 19 21 9 8 9 8 8 10 11 12 14 14 14 15 15 20 21 22 21 20 16 8 2 5 10 14 17 18 20 23 26 28
11 14 17 19 25 24 22 21 18 16 15 17 24 23 23 8 9 7 7 9 12 13 15 15 14 14 16 20 22 23 23 22 19 17 15 11 3 6 11 15 18 19 22 25
14 14 15 21 23 23 22 19 20 18 18 22 24 23 11 10 8 8 9 10 12 13 14 15 15 16 16 21 22 22 23 23 20 19 18 16 14 8 2 6 11 16 20 22
17 11 13 21 19 18 12 8 7 7 11 8 7 11 15 6 10 12 10 11 12 13 13 14 15 15 19 22 21 22 22 20 21 21 21 21 18 15 12 6 5 11 15 18
9 9 8 10 12 13 4 11 7 5 8 11 9 12 11 11 14 13 12 11 12 12 13 13 12 16 21 22 22 20 21 22 21 22 22 24 23 19 19 14 9 6 9 15
7 9 9 5 11 17 5 11 7 7 3 8 10 12 11 11 10 12 11 12 12 12 11 12 14 16 18 21 21 20 22 23 24 25 24 24 24 22 19 18 17 12 8 12
13 10 6 9 9 9 9 17 14 8 2 7 8 10 13 4 2 4 9 8 9 10 13 15 16 15 18 21 20 19 21 23 25 26 24 24 24 22 21 20 18 16 11 10
9 8 7 9 9 9 11 20 16 6 7 5 6 8 10 6 4 5 7 7 8 8 9 11 13 15 17 19 19 18 18 21 22 23 23 24 24 22 21 21 19 18 15 11
12 9 9 7 11 9 18 17 11 4 10 4 3 5 5 5 4 5 6 7 7 8 11 12 12 12 13 16 18 17 19 21 22 22 22 23 23 22 23 22 21 21 17 11
12 9 8 7 9 13 15 9 5 7 8 2 4 4 6 6 6 7 8 8 7 9 11 11 13 13 11 14 15 17 20 23 26 24 23 23 23 20 21 21 20 19 19 15
10 11 8 11 10 11 10 3 3 3 3 4 4 4 5 6 7 7 8 8 8 11 12 12 13 12 12 12 13 14 17 23 25 23 24 23 21 24 21 19 17 17 17 17
13 14 13 15 16 16 9 6 5 5 2 2 3 5 6 7 9 9 8 8 9 12 13 13 13 13 13 11 12 14 18 22 20 20 21 20 21 20 22 17 15 13 16 15
13 18 13 13 14 8 13 2 3 6 6 3 4 6 6 7 9 10 9 10 13 15 16 17 18 17 16 16 16 17 18 18 19 20 18 19 21 20 20 21 23 16 15 18
Wind_Direction
196 213 223 220 219 237 249 261 270 271 273 266 262 269 264 264 262 259 253 251 250 251 250 247 234 226 224 217 210 204 194 193 189 188 184 184 185 186 188 190 188 188 190 194
196 226 233 233 235 233 240 249 257 267 260 251 266 272 273 267 264 258 255 251 250 248 243 244 237 225 211 213 209 205 200 193 190 188 188 185 182 187 187 186 189 192 195 194
225 242 237 233 232 233 233 239 249 252 259 259 261 277 275 266 248 246 250 252 253 249 246 242 240 223 211 210 205 204 201 195 192 189 183 181 177 176 184 187 186 191 190 197
246 252 256 243 234 226 239 234 252 260 264 251 224 276 272 280 276 259 248 246 248 249 245 248 246 232 209 212 210 206 200 195 192 186 185 182 180 180 193 187 188 191 200 202
234 252 245 234 234 211 237 265 243 243 236 252 252 250 279 286 268 254 254 244 247 255 250 245 242 234 219 209 210 204 202 196 192 189 189 188 187 191 184 184 182 185 191 195
267 245 288 264 258 225 228 225 151 245 232 235 244 230 277 259 257 268 288 284 301 356 307 264 267 273 244 217 209 203 201 200 196 193 193 192 189 182 174 177 177 180 183 189
274 251 249 240 239 246 204 192 208 214 209 236 247 219 242 136 208 297 284 272 199 308 318 339 323 290 257 234 202 206 203 201 197 196 198 196 193 187 181 178 181 180 182 189
298 294 228 216 226 214 201 200 207 224 228 246 234 220 237 238 260 272 327 278 291 287 35 29 24 13 347 260 221 210 205 205 200 198 199 198 197 193 189 184 185 186 187 189
300 281 335 332 279 239 205 223 230 280 281 266 259 241 268 278 258 281 30 45 64 53 44 40 31 31 21 9 235 216 211 210 202 201 201 200 199 197 191 188 187 187 187 187
298 306 289 317 270 248 252 310 225 226 235 238 246 259 264 234 245 70 38 44 45 38 36 38 35 33 33 32 22 233 215 205 210 203 203 202 200 201 196 189 188 187 187 187
306 312 300 296 223 247 205 238 245 254 239 247 248 241 9 19 41 77 64 50 40 40 36 38 37 37 36 38 38 39 29 207 200 205 209 208 205 204 199 195 192 188 185 188
335 279 315 294 296 331 311 273 243 250 236 241 256 258 71 83 76 84 78 64 52 48 45 41 40 40 38 34 36 36 31 28 273 218 214 209 205 205 204 201 194 189 187 191
332 341 325 329 151 27 11 324 328 312 272 273 246 242 115 110 96 75 76 62 50 40 40 38 36 36 35 33 34 34 31 25 10 326 221 212 212 203 205 204 199 192 188 190
331 296 298 277 294 297 297 299 299 295 282 265 253 264 194 158 130 96 74 65 51 41 38 33 33 31 30 30 29 28 28 25 21 26 341 223 214 213 210 208 202 196 192 190
316 295 290 280 287 291 277 284 299 289 281 251 259 263 273 198 117 77 65 62 53 37 33 31 27 23 24 24 24 25 25 24 26 36 39 25 340 236 222 213 205 202 198 197
295 286 295 287 287 284 282 279 283 279 278 263 259 259 82 67 68 45 42 47 53 39 28 23 24 24 22 19 17 21 21 22 27 34 34 25 22 22 304 228 212 205 203 201
293 282 295 287 298 299 282 298 313 317 18 329 336 354 341 96 59 35 24 33 41 37 29 21 17 19 20 15 13 20 19 20 29 29 28 23 17 16 10 352 257 225 212 206
300 301 294 296 304 273 65 27 35 27 45 15 5 356 10 59 65 50 32 31 32 29 28 21 15 17 18 13 12 15 21 21 25 26 22 17 8 3 5 9 354 288 246 225
320 325 309 287 311 297 63 10 344 331 53 28 4 1 347 127 119 55 38 32 29 27 24 21 17 19 20 17 10 15 19 18 19 16 12 6 4 355 359 0 356 344 301 261
330 316 287 302 320 308 29 354 326 312 184 26 13 9 360 340 325 39 20 33 36 26 18 10 10 17 19 15 12 17 19 16 11 2 358 355 0 352 353 353 349 345 329 294
322 309 309 309 312 278 8 349 331 319 14 25 20 12 17 31 30 3 6 34 23 27 22 12 12 15 10 7 7 15 17 15 359 353 355 360 357 350 351 358 353 348 347 325
291 295 287 307 298 270 8 343 342 318 323 318 352 18 10 16 6 357 358 360 7 7 4 11 11 12 8 5 3 7 12 355 350 354 360 354 358 351 347 355 0 354 355 345
278 267 302 283 276 308 310 291 310 321 304 348 323 5 352 334 343 340 339 347 347 353 355 3 0 357 3 8 3 357 352 350 348 351 353 352 346 348 349 346 350 354 349 341
268 267 252 267 264 278 300 243 285 307 316 331 346 343 340 327 324 322 326 332 333 341 344 348 346 347 344 355 353 350 345 345 347 342 341 342 343 339 344 347 347 344 339 334
270 287 261 260 273 275 243 239 247 239 225 270 301 320 324 323 313 319 319 321 324 324 328 333 330 328 327 331 335 341 340 341 339 334 332 332 333 332 329 328 325 324 310 308
259 259 257 261 272 267 280 122 226 270 265 272 292 296 298 303 305 313 306 310 313 313 318 318 317 317 317 321 321 328 330 331 326 322 323 323 320 320 319 320 319 317 308 311